Regional Weather Roundup
Issued by NWS

Home | Current Version | Previous Version | Graphics & Text | Print | Product List | Glossary On
Versions: 1 2 3 4 5 6 7 8 9 10 11 12 13 14 15 16 17 18 19 20 21 22 23 24 25 26 27 28 29 30 31 32 33 34 35 36 37 38 39 40 41 42 43 44 45 46 47 48 49 50
000
ASUS43 KLMK 250002
RWRKY
KENTUCKY REGIONAL WEATHER ROUNDUP
NATIONAL WEATHER SERVICE LOUISVILLE KY
700 PM EST SAT JAN 24 2015

NOTE "FAIR" INDICATES FEW OR NO CLOUDS BELOW 12,000 FEET
WITH NO SIGNIFICANT WEATHER AND/OR OBSTRUCTIONS TO VISIBILITY.

KYZ001>023-026-027-061>063-070>075-250100-
WESTERN AND SOUTH CENTRAL KENTUCKY

CITY           SKY/WX    TMP DP  RH WIND       PRES   REMARKS
PADUCAH        CLEAR     45  31  58 SW6       29.84S
HENDERSON      CLEAR     41  28  60 SW9       29.82R
OWENSBORO      CLEAR     39  30  70 SW7       29.83R WCI  34
HOPKINSVILLE   CLEAR     40  29  65 SW8       29.86R WCI  35
BOWLING GREEN  CLEAR     43  32  65 SW3       29.86R
GLASGOW        NOT AVBL
$$

KYZ024-025-028>034-038-045-046-053-250100-
NORTH CENTRAL KENTUCKY

CITY           SKY/WX    TMP DP  RH WIND       PRES   REMARKS
LOUISVILLE/SDF CLEAR     43  30  60 S5        29.82R
LOUISVILLE/LOU CLEAR     42  29  59 SW3       29.82R
FORT KNOX      CLEAR     37  31  78 S6        29.82R WCI  33
$$

KYZ035>037-039>044-047>052-055>060-089>105-250100-
NORTHEAST KENTUCKY

CITY           SKY/WX    TMP DP  RH WIND       PRES   REMARKS
LEXINGTON      CLEAR     32  28  85 SW7       29.82R WCI  26
COVINGTON      PTCLDY    35  26  69 SW7       29.78R WCI  29
FRANKFORT      CLEAR     34  29  82 SW8       29.81R WCI  27
$$

KYZ054-064>069-076>088-106>120-250100-
SOUTHEAST KENTUCKY

CITY           SKY/WX    TMP DP  RH WIND       PRES   REMARKS
JACKSON        CLOUDY    33  29  85 VRB6      29.81R WCI  28
LONDON         CLEAR     37  28  70 W6        29.85R WCI  32
SOMERSET       NOT AVBL
MIDDLESBORO    NOT AVBL
MONTICELLO     CLEAR     37  32  82 SW7       29.89R WCI  31
$$



USA.gov is the U.S. government's official web portal to all federal, state and local government web resources and services.